Погода в Белой Речке

Россия / Кабардино-Балкарская Республика     43°26′03″N   43°32′09″E
темп.,
°C
ветер,
м/с
пор.,
м/с
влажн.,
%
обл.,
%
осадки,
мм/ч
давл.,
гПа
погр.,
м
3 марта, ср
ср300:00−4юз22694 0.0 102623
03:00−4зюз226610 0.0 102425
06:00−4ююз236538 0.0 102229
09:000ссв116369 0.0 1020179
12:00+1с2367100 0.0 1019537
15:00+2с2469100 0.0 10191026
18:00−1с2592100 1.3 1022521
21:00−2сз1487100 2.5 1025256
4 марта, чт
чт400:00−3ю1192100 0.7 102641
03:00−4юз2293100 1.2 102850
06:00−6зюз228186 0.2 102936
09:00−1юв127264 0.2 1028356
12:00+1в11770 0.0 1026599
15:00+2св117212 0.0 1024770
18:00−2вюв018164 0.0 102421
21:00−3юз228034 0.0 102522
5 марта, пт
пт500:00−3юз22720 0.0 102422
03:00−4юз22650 0.0 102321
06:00−4юз22570 0.0 102221
09:00+2в10580 0.0 1020116
12:00+5в11600 0.0 1019300
15:00+6в11580 0.0 1018329
18:00+2ююз11690 0.0 102022
21:00+1юз23600 0.0 102123
6 марта, сб
сб600:00+1зюз23520 0.0 102023
03:00+1зюз33500 0.0 102026
06:00+2зюз335071 0.0 102027
09:00+7зюз225544 0.0 101848
12:00+11ссв11440 0.0 1016336
15:00+11ссв115118 0.0 1014297
18:00+6зюз2361100 0.0 101523
21:00+4з3364100 0.0 101643
7 марта, вс
вс700:00+3юз3360100 0.0 101626
03:00+1юз226572 0.0 101722
06:00−1ссз479169 0.2 1019414
09:00−2сз249084 1.6 1021411
12:00−2св4594100 2.2 1021434
15:00−2св3495100 4.2 1022405
18:00−3св1291100 1.3 1024153
21:00−4зюз0093100 1.6 102657